カタログに戻る

COSMOS 1275 DEB

運用中PO
NORAD 17633·DEBRIS·🇷🇺 Russia

打ち上げ Jun 4, 1981 から Plesetsk Cosmodrome

Loading…

次のパス (今後24時間)

TLE

最新Source: Space-Track

元期: Sep 13, 2026, 22:26 UTC

1 17633U 81053LC  26256.93506372  .00002639  00000-0  19424-2 0  9995
2 17633  83.0614  67.8812 0156145 133.9616 352.8280 13.89605904 53659

AllMySatでCOSMOS 1275 DEBをリアルタイム追跡

Download on the App Store